Powrót do katalogu

STARLINK-33643

AktywnyŁącznośćVLEO
NORAD 63381·PAYLOAD·🇺🇸 United States

Wystrzelony Mar 26, 2025 z Vandenberg Space Force Base

Loading…

Następne Przeloty (najbliższe 24 godziny)

TLE

ŚwieżeSource: CelesTrak SupGP

Epoka: Sep 14, 2026, 22:31 UTC

1 63381C 25063U   26257.93868056  .00044821  00000+0  13242-2 0  2573
2 63381  53.1561 251.3966 0001306 103.7862 227.6657 15.34368253    19

Śledź STARLINK-33643 w czasie rzeczywistym z AllMySat

Download on the App Store